Location: Jasper
(52.8737°N, 118.0814°W)
Time: 23:57:31
(UTC-06:00)

ISS - Visible Passes

Search period start: 11 July 2020 00:00
Search period end: 21 July 2020 00:00
Orbit: 417 x 419 km, 51.6° (Epoch: 12 July)

Date Brightness Start Highest point End Pass type
(mag) Time Alt. Az. Time Alt. Az. Time Alt. Az.
11 Jul -1.5 00:50:10 12° ESE 00:50:10 12° ESE 00:50:38 10° ESE visible
11 Jul -3.6 02:23:03 26° SW 02:24:37 50° SSE 02:27:54 10° E visible
11 Jul -3.8 03:57:55 10° W 04:01:17 72° S 04:04:38 10° E visible
12 Jul -3.4 01:36:00 34° SSW 01:36:47 40° SSE 01:39:58 10° E visible
12 Jul -3.9 03:10:01 10° W 03:13:22 73° S 03:16:44 10° E visible
12 Jul -3.5 04:46:45 10° W 04:50:01 49° SSW 04:53:17 10° ESE visible
13 Jul -3.0 00:48:12 27° S 00:48:58 30° SSE 00:51:59 10° E visible
13 Jul -3.9 02:22:07 10° WSW 02:25:28 68° S 02:28:49 10° E visible
13 Jul -3.8 03:58:49 10° W 04:02:09 60° SSW 04:05:28 10° ESE visible
13 Jul -2.6 23:58:28 10° SSW 00:01:10 23° SSE 00:03:54 10° E visible
14 Jul -3.8 01:34:15 10° WSW 01:37:34 60° SSE 01:40:54 10° E visible
14 Jul -3.9 03:10:53 10° W 03:14:15 68° S 03:17:35 10° ESE visible
14 Jul -2.9 04:47:44 10° W 04:50:44 30° SSW 04:53:44 10° SE visible
14 Jul -2.2 23:11:11 10° S 23:13:25 17° SE 23:15:39 10° ESE visible
15 Jul -3.6 00:46:24 10° WSW 00:49:40 50° SSE 00:52:57 10° E visible
15 Jul -3.9 02:22:58 10° W 02:26:19 73° S 02:29:40 10° E visible
15 Jul -3.3 03:59:43 10° W 04:02:54 39° SSW 04:06:04 10° SE visible
15 Jul -3.3 23:58:37 10° SW 00:01:47 39° SSE 00:04:58 10° E visible
16 Jul -3.9 01:35:01 10° W 01:38:22 73° S 01:41:44 10° E visible
16 Jul -3.6 03:11:45 10° W 03:15:01 50° SSW 03:18:17 10° ESE visible
16 Jul -2.2 04:49:03 10° WSW 04:51:16 17° SW 04:53:29 10° S visible
16 Jul -2.9 23:10:56 10° SW 23:13:56 30° SSE 23:16:56 10° E visible
17 Jul -3.9 00:47:04 10° WSW 00:50:25 68° S 00:53:46 10° E visible
17 Jul -3.8 02:23:46 10° W 02:27:06 60° SSW 02:30:25 10° ESE visible
17 Jul -2.6 04:00:46 10° W 04:03:29 23° SSW 04:06:12 10° SSE visible
17 Jul -3.8 23:59:09 10° WSW 00:02:29 59° SSE 00:05:48 10° E visible
18 Jul -3.9 01:35:48 10° W 01:39:09 68° S 01:42:30 10° ESE visible
18 Jul -3.0 03:12:38 10° W 03:15:38 31° SSW 03:15:38 31° SSW visible
18 Jul -3.6 23:11:17 10° WSW 23:14:32 49° SSE 23:17:49 10° E visible
19 Jul -3.9 00:47:49 10° W 00:51:11 73° S 00:54:32 10° E visible
19 Jul -3.3 02:24:34 10° W 02:27:33 39° SSW 02:27:33 39° SSW visible
19 Jul -3.9 23:59:50 10° W 00:03:12 72° S 00:06:34 10° E visible
20 Jul -3.6 01:36:33 10° W 01:39:50 51° SSW 01:40:22 45° SSE visible
20 Jul -3.8 23:11:52 10° WSW 23:15:12 67° S 23:18:34 10° E visible
